Home > Weather > Melbourne > Past weeks

Flag for Australia Past Weather in Melbourne, Victoria, Australia — Yesterday and Last 2 Weeks

Now
45 °F

Sprinkles. Broken clouds.


Feels Like: 38 °F
Forecast: 41 / 53 °F
Wind: 13 mph from West

Location: Melbourne Airport

Current Time: Aug 25, 2016 at 9:25:54 AM

Latest Report: Aug 25, 2016 at 8:30 AM


Visibility: N/A

Pressure: 29.98 "Hg

Humidity: 87%

Dew Point: 41 °F

Location of MelbourneLocation

Past Weather in Melbourne — Graph

°F

Melbourne Temperature Yesterday

Maximum temperature yesterday: 54 °F (at 1:00 PM)
Minimum temperature yesterday: 36 °F (at 2:00 AM)
Average temperature yesterday: 45 °F

High & Low Weather Summary for the Past Weeks

 TemperatureHumidityPressure
High68 °F (Aug 18, 2:00 PM)100% (Aug 22, 8:30 PM)30.45 "Hg (Aug 22, 8:30 PM)
Low36 °F (Aug 24, 2:00 AM)41% (Aug 23, 1:30 PM)29.68 "Hg (Aug 19, 6:00 AM)
Average51 °F74%30.04 "Hg
* Reported Aug 10 8:00 AM — Aug 25 8:00 AM, Melbourne, Weather by CustomWeather, © 2016

Note: Actual official high and low records may vary slightly from our data, if they occured in-between our weather recording intervals... More about our weather records

Advertising

Melbourne Weather History for the Previous 24 Hours

Scroll right to see more
 ConditionsComfort  
Time TempWeatherWind HumidityBarometerVisibility
8:00 AM
Thu, Aug 25
45 °FBroken clouds.12 mph87%29.95 "HgN/A
7:30 AM43 °FBroken clouds.10 mph93%29.95 "HgN/A
7:00 AM43 °FBroken clouds.9 mph93%29.95 "HgN/A
6:30 AM43 °FBroken clouds.9 mph87%29.92 "HgN/A
6:00 AM43 °FBroken clouds.9 mph87%29.92 "HgN/A
5:30 AM43 °FPassing clouds.10 mph93%29.92 "HgN/A
5:00 AM43 °FScattered showers. Passing clouds.10 mph87%29.92 "HgN/A
4:30 AM41 °FPassing clouds.9 mph93%29.89 "HgN/A
4:00 AM43 °FPassing clouds.10 mph87%29.89 "HgN/A
3:00 AM43 °FPassing clouds.9 mph87%29.92 "HgN/A
2:30 AM43 °FPassing clouds.9 mph87%29.92 "HgN/A
2:00 AM41 °FPassing clouds.10 mph93%29.92 "HgN/A
1:00 AM41 °FPassing clouds.10 mph93%29.92 "HgN/A
12:30 AM41 °FPassing clouds.9 mph93%29.92 "HgN/A
12:00 AM41 °FPassing clouds.7 mph100%29.92 "HgN/A
11:30 PM
Wed, Aug 24
41 °FPassing clouds.6 mph87%29.92 "HgN/A
11:00 PM43 °FPassing clouds.5 mph87%29.92 "HgN/A
10:30 PM45 °FPassing clouds.6 mph87%29.95 "HgN/A
10:00 PM46 °FPassing clouds.8 mph87%29.95 "HgN/A
9:30 PM46 °FScattered showers. Partly cloudy.6 mph87%29.95 "HgN/A
9:00 PM46 °FSprinkles. Passing clouds.5 mph87%29.95 "HgN/A
8:00 PM48 °FPassing clouds.7 mph82%29.95 "HgN/A
7:30 PM48 °FPassing clouds.10 mph82%29.95 "HgN/A
7:00 PM48 °FPartly cloudy.9 mph82%29.95 "HgN/A
6:30 PM48 °FPartly cloudy.10 mph76%29.95 "HgN/A
6:00 PM48 °FPassing clouds.8 mph82%29.92 "HgN/A
5:30 PM48 °FPartly cloudy.10 mph82%29.92 "HgN/A
5:00 PM50 °FPartly cloudy.14 mph76%29.92 "HgN/A
4:00 PM50 °FScattered clouds.12 mph71%29.92 "HgN/A
3:30 PM52 °FScattered clouds.14 mph67%29.92 "HgN/A
3:00 PM54 °FScattered clouds.13 mph63%29.92 "HgN/A
2:30 PM54 °FPartly sunny.10 mph58%29.92 "HgN/A
2:00 PM54 °FBroken clouds.9 mph58%29.92 "HgN/A
1:30 PM54 °FPartly sunny.8 mph58%29.92 "HgN/A
1:00 PM54 °FBroken clouds.9 mph58%29.95 "HgN/A
12:30 PM52 °FPartly sunny.8 mph62%29.95 "HgN/A
12:00 PM50 °FPartly sunny.10 mph76%29.95 "HgN/A
11:30 AM52 °FPartly sunny.9 mph72%29.98 "HgN/A
11:00 AM52 °FPartly sunny.6 mph72%29.98 "HgN/A
10:45 AM50 °FPartly sunny.8 mph76%29.98 "HgN/A
10:00 AM48 °FBroken clouds.6 mph87%30.01 "HgN/A
9:30 AM46 °FPartly sunny.7 mph87%30.01 "HgN/A
9:00 AM45 °FBroken clouds.3 mph93%30.01 "HgN/A
Weather by CustomWeather, © 2016

See weather overviewHow to use our weather pages